FENGYUN 1C DEB

Satellite information

Favourite Embed

Satellite Type and Status

DEBRISIN ORBIT

Key statistics

Satellite FENGYUN 1C DEB at a glance.

Uptime

9715

Days in orbit

Revolutions

≈ 14.1

Per day

Orbit

SSO

Sun Synchronous Orbit

Inclination

98.6

Latest

Satellite identification and parameters

Extended collection of information and parameters for FENGYUN 1C DEB.

Object identification

Identified? True

Debris? True

Object name: FENGYUN 1C DEB

International designator: 1999-025DZM

Object number (NORAD): 36691

Object ID (CCSDS): 36691

Country: PEOPLES REPUBLIC OF CHINA (PRC)

Current information (Y/N): Y

RCS size: SMALL

Orbital parameters

Period: 102.338 minutes

Inclination: 98.6374 deg

SMA: 7247.432 km

Apoapsis: 962.847 km

Periapsis: 775.747 km

RAAN: 343.0423 deg

Eccentricy: 0.01290803

Argument of periapsis: 246.8073 deg

Mean anomaly: 111.9457 deg

Mean motion: 14.07105067 rev/day

Mean motion (dot): 0.00005753 rev/day2

B* drag term: 0.0032098608 1/REarth

Two-line elements (TLE)

Creation date: Dec. 9, 2025, 5:08 a.m.

Reference frame: TEME

Reference center: EARTH

Epoch: Dec. 8, 2025, 5:50 p.m. UTC

TLE line 0: 0 FENGYUN 1C DEB

TLE line 1: 1 36691U 99025DZM 25342.74313743 .00005753 00000-0 32099-2 0 9993

TLE line 2: 2 36691 98.6374 343.0423 0129080 246.8073 111.9457 14.07105067595539

Live tracking on map

Real-time ground track for satellite FENGYUN 1C DEB.

In-orbit conjunctions

A list of the most updated potential collisions computed for object FENGYUN 1C DEB.

Target Orbit TCA Probability of collision Miss distance Type
COSMOS 1275 DEB LEO 2025-10-02 05:59:43 0.0001111456 197.0 (m) DEBRIS
CZ-6A DEB LEO 2025-04-28 09:20:24 0.0001000143 73.0 (m) DEBRIS
THORAD DELTA 1 DEB SSO 2024-11-13 14:47:26 0.0001760743 210.0 (m) DEBRIS
COSMOS 1428 LEO 2024-10-23 00:18:09 0.0004139244 562.0 (m) PAYLOAD
COSMOS 1275 DEB LEO 2024-09-27 08:09:17 0.0002693676 412.0 (m) DEBRIS

Associated space launch

Chinese polar orbiting meteorological satellite

FENGYUN 1C DEB was lifted into orbit during the mission ‘Long March 4B | Feng Yun 1C’, on board a Long March 4B space rocket.

The launch took place on May 10, 1999, 1:33 a.m. from Launch Complex 7.

For more information about the launch, click the button.

Launch to space Long March 4B | Feng Yun 1C
Long March 4B | Feng Yun 1C

Agency: N/A

Status: Launch Successful

Launch date: May 10, 1999, 1:33 a.m. UTC

Rocket: Long March 4B

Launch pad: Launch Complex 7

Location: Taiyuan Satellite Launch Center, People's Republic of China

...

Latest news about this satellite

There are no fresh news available about this satellite. Check back as we update our databases every day.


Newsletter sign-up

Weekly statistics, charts and insights to help you stay on top of the space industry.